GW1402 Weather Reports


time (UTC)temp
C
wind
direction
speed
KPH
gust
KPH
rain 1hr
cm
rain 24hr
cm
rain mn
cm
humidity
%
barometer
mb
20260502205015 22 225 14.5 19.3 0.00 0.00 0.00 14 1428.1
20260502204017 22 221 14.5 22.5 0.00 0.00 0.00 16 1428.3
20260502203033 22 125 6.4 9.7 0.00 0.00 0.00 18 1428.3
20260502201116 22 78 3.2 6.4 0.00 0.00 0.00 21 1428.7
20260502200215 22 328 0.0 0.0 0.00 0.00 0.00 20 1428.7
20260502195229 21 106 0.0 1.6 0.00 0.00 0.00 21 1428.8
20260502194316 21 64 4.8 6.4 0.00 0.00 0.00 23 1429.1
20260502193316 21 62 8.0 9.7 0.00 0.00 0.00 22 1429.4
20260502192317 21 38 3.2 6.4 0.00 0.00 0.00 25 1429.6
20260502190416 21 140 4.8 6.4 0.00 0.00 0.00 22 1430.0
20260502185422 20 315 0.0 4.8 0.00 0.00 0.00 21 1430.4
20260502185317 20 313 4.8 8.0 0.00 0.00 0.00 22 1430.3
20260502184316 20 67 0.0 3.2 0.00 0.00 0.00 23 1430.6
20260502183315 20 45 4.8 8.0 0.00 0.00 0.00 24 1430.8
20260502182317 19 37 4.8 8.0 0.00 0.00 0.00 27 1431.0
20260502182217 19 25 6.4 8.0 0.00 0.00 0.00 27 1430.9
20260502181218 19 11 4.8 8.0 0.00 0.00 0.00 28 1431.0
20260502180315 18 46 9.7 12.9 0.00 0.00 0.00 33 1430.9
20260502170517 16 90 0.0 1.6 0.00 0.00 0.00 33 1431.8
20260502163617 14 64 8.0 9.7 0.00 0.00 0.00 43 1431.8
20260502161814 14 45 1.6 3.2 0.00 0.00 0.00 43 1432.3
20260502152015 10 43 4.8 8.0 0.00 0.00 0.00 54 1432.1
20260502130217 0 202 1.6 1.6 0.00 0.00 0.00 76 1430.7
20260502123215 0 270 0.0 1.6 0.00 0.00 0.00 80 1430.5
20260502122216 0 270 1.6 4.8 0.00 0.00 0.00 80 1430.4
20260502121215 0 270 1.6 3.2 0.00 0.00 0.00 78 1430.3
20260502121117 0 270 0.0 1.6 0.00 0.00 0.00 78 1430.3
20260502120215 1 315 3.2 6.4 0.00 0.00 0.00 76 1430.5
20260502115233 1 337 3.2 4.8 0.00 0.00 0.00 76 1430.1
20260502114315 1 315 1.6 3.2 0.00 0.00 0.00 76 1430.2
20260502113317 2 315 4.8 4.8 0.00 0.00 0.00 75 1430.3
20260502112318 1 315 0.0 0.0 0.00 0.00 0.00 76 1430.0
20260502111316 1 315 0.0 1.6 0.00 0.00 0.00 75 1430.2
20260502110316 2 45 3.2 3.2 0.00 0.00 0.00 73 1430.3
20260502105316 2 112 0.0 0.0 0.00 0.00 0.00 73 1430.6
20260502104316 2 112 3.2 3.2 0.00 0.00 0.00 76 1430.6
20260502103318 1 135 4.8 4.8 0.00 0.00 0.00 78 1430.7
20260502102415 2 135 4.8 4.8 0.00 0.00 0.00 73 1430.9
20260502101433 2 22 0.0 0.0 0.00 0.00 0.00 72 1430.9
20260502100516 3 22 0.0 0.0 0.00 0.00 0.00 70 1430.9
20260502071117 5 157 3.2 4.8 0.00 0.00 0.00 56 1431.3
20260502070116 5 157 6.4 8.0 0.00 0.00 0.00 59 1431.4
20260502065116 5 202 4.8 4.8 0.00 0.00 0.00 57 1431.2
20260502064215 5 202 3.2 4.8 0.00 0.00 0.00 57 1431.3
20260502063236 5 202 4.8 4.8 0.00 0.00 0.00 56 1431.4
20260502061415 6 225 6.4 6.4 0.00 0.00 0.00 52 1431.5
20260502060417 6 180 6.4 6.4 0.00 0.00 0.00 51 1431.6
20260502055435 6 180 6.4 8.0 0.00 0.00 0.00 51 1431.5
20260502054521 6 315 0.0 1.6 0.00 0.00 0.00 51 1431.6
20260502052621 8 247 4.8 6.4 0.00 0.00 0.00 44 1431.4
20260502051622 8 247 6.4 6.4 0.00 0.00 0.00 42 1431.7
20260502050637 10 202 3.2 3.2 0.00 0.00 0.00 38 1431.6
20260502045619 10 135 0.0 0.0 0.00 0.00 0.00 34 1431.6
20260502045537 10 135 0.0 1.6 0.00 0.00 0.00 34 1431.6
20260502044519 11 179 8.0 8.0 0.00 0.00 0.00 33 1431.7
20260502043519 10 112 9.7 11.3 0.00 0.00 0.00 35 1431.5
20260502042519 10 112 9.7 11.3 0.00 0.00 0.00 37 1431.5
20260502041520 10 111 8.0 9.7 0.00 0.00 0.00 36 1431.2
20260502040519 10 112 9.7 11.3 0.00 0.00 0.00 38 1431.0
20260502035520 10 90 6.4 8.0 0.00 0.00 0.00 37 1431.1
20260502033521 10 135 9.7 11.3 0.00 0.00 0.00 40 1431.0
20260502032520 10 112 9.7 9.7 0.00 0.00 0.00 40 1430.6
20260502031519 11 122 8.0 11.3 0.00 0.00 0.00 34 1430.6
20260502025521 15 67 3.2 4.8 0.00 0.00 0.00 23 1430.5
20260502023620 15 22 0.0 1.6 0.00 0.00 0.00 17 1430.6
20260502022621 16 22 1.6 1.6 0.00 0.00 0.00 17 1430.7
20260502022521 16 22 1.6 3.2 0.00 0.00 0.00 16 1430.6
20260502021520 16 22 1.6 1.6 0.00 0.00 0.00 18 1430.6
20260502021420 16 22 1.6 1.6 0.00 0.00 0.00 18 1430.5
20260502020519 16 22 0.0 1.6 0.00 0.00 0.00 24 1430.6
20260502015518 17 22 1.6 3.2 0.00 0.00 0.00 22 1430.6
20260502014520 17 22 3.2 4.8 0.00 0.00 0.00 22 1430.3
20260502013521 17 22 3.2 3.2 0.00 0.00 0.00 23 1430.5
20260502012619 17 22 4.8 6.4 0.00 0.00 0.00 24 1430.7
20260502011620 18 22 3.2 6.4 0.00 0.00 0.00 25 1430.7
20260502010620 18 20 4.8 6.4 0.00 0.00 0.00 21 1430.7
20260502005621 19 22 0.0 1.6 0.00 0.00 0.00 19 1430.9
20260502004719 20 360 1.6 3.2 0.00 0.00 0.00 17 1430.9
20260502003818 20 360 4.8 6.4 0.00 0.00 0.00 16 1430.8
20260502002820 20 44 1.6 3.2 0.00 0.00 0.00 20 1430.8
20260502001918 20 39 4.8 6.4 0.00 0.00 0.00 17 1431.0
20260502001819 20 45 4.8 6.4 0.00 0.00 0.00 16 1430.9
20260502000819 20 14 3.2 6.4 0.00 0.00 0.00 15 1431.1
20260501235823 20 342 1.6 8.0 0.00 0.00 0.00 16 1431.0
20260501234819 20 14 6.4 9.7 0.00 0.00 0.00 17 1431.3
20260501233719 20 292 1.6 6.4 0.00 0.00 0.00 17 1431.0
20260501232719 20 346 3.2 3.2 0.00 0.00 0.00 16 1431.3
20260501230821 20 356 6.4 9.7 0.00 0.00 0.00 16 1431.2
20260501225820 20 347 3.2 6.4 0.00 0.00 0.00 16 1431.6
20260501223820 19 30 3.2 8.0 0.00 0.00 0.00 19 1431.5
20260501222821 20 1 0.0 1.6 0.00 0.00 0.00 17 1431.8
20260501221820 20 356 6.4 11.3 0.00 0.00 0.00 18 1431.9
20260501220822 20 315 0.0 3.2 0.00 0.00 0.00 19 1432.1
20260501214820 19 342 1.6 8.0 0.00 0.00 0.00 19 1432.7
20260501213819 19 28 4.8 6.4 0.00 0.00 0.00 19 1432.6
20260501212822 18 3 3.2 4.8 0.00 0.00 0.00 22 1432.7
20260501211822 18 290 0.0 6.4 0.00 0.00 0.00 20 1432.8
20260501210820 18 130 4.8 8.0 0.00 0.00 0.00 21 1433.1
20260501205820 18 43 1.6 4.8 0.00 0.00 0.00 21 1433.2